SCP
0 0 0 0 0 0 0 0 0 0 0 0 0 0 0 0 0 0 0 0 0 0 0 0 0 0 0 0 0 0 0 0 0 0 0 0 0 0 0 0 0 0 0 0 0 0 0 0 0 -0 0 0 0 0
0 0 0 0 0 0 0 0 0 0 0 0 0 0 0 0 0 0 0 0 0 0 0 0 0 0 0 0 0 0 0 0 0 0 0 0 0 0 0 0 0 0 0 0 0 0 0 0 0 -0 0 0 0 0
0 0 0 0 0 0 0 0 0 0 0 0 0 0 0 0 0 0 0 0 0 0 0 0 0 0 -0 0 0 0 0 0 0 0 0 0 0 0 0 0 -0 -0 -0 0 0 0 -0 0 0 0 0 0 0 0
0 0 0 0 0 0 0 0 0 0 0 0 0 0 0 0 0 0 0 0 0 0 0 0 -0 -0 0 0 0 0 0 0 0 0 0 0 0 0 0 0 -0 0 0 0 -0 -0 -0 0 0 0 0 0 0 0
0 0 0 0 0 0 0 0 0 0 0 0 0 0 0 0 0 0 0 0 0 0 0 0 0 0 0 0 0 0 0 0 0 0 0 0 0 0 0 0 -0 0 0 -0 -0 0 0 0 0 0 0 0 0 0
0 0 0 0 0 0 0 0 0 0 0 0 0 0 0 0 0 0 0 0 0 0 0 0 0 0 0 -0 0 0 0 0 0 0 0 0 0 0 0 0 0 0 0 0 0 0 0 0 -0 0 0 0 0 0
0 0 0 0 0 0 0 0 0 0 0 0 0 0 0 0 0 0 0 0 0 0 0 0 0 0 0 0 0 0 0 0 0 0 0 0 0 0 0 0 0 0 -0 -0 -0 0 0 0 0 -0 0 0 -0 -0
0 0 0 0 0 0 0 0 0 0 0 0 0 0 0 0 0 0 0 0 0 0 0 0 0 0 0 0 0 0 0 0 0 0 0 0 0 0 0 -0 -0 -0 0 0 0 0 0 0 0 0 0 -0 -0 -0
0 0 0 0 0 0 0 0 0 0 0 0 0 0 0 0 0 0 0 0 0 0 0 0 0 0 0 0 0 0 0 0 0 -0 0 0 0 -0 -0 0 -0 0 0 0 0 0 0 0 0 0 -0 -0 -0 0
0 0 0 0 0 0 0 0 0 0 0 0 0 0 0 0 0 0 0 0 0 0 0 0 0 0 0 0 0 0 0 0 0 -0 0 0 0 -0 -0 -0 -0 0 0 0 0 0 0 0 0 0 -0 -0 -0 -0
0 0 0 0 0 0 0 0 0 0 0 0 0 0 0 0 0 0 0 0 0 0 0 0 0 0 0 0 0 0 0 0 0 0 0 0 0 -0 0 0 0 0 0 0 0 0 0 0 0 0 0 0 -0 0
0 0 0 0 0 0 0 0 0 0 0 0 0 0 0 0 0 0 0 0 0 0 0 0 0 0 0 0 0 0 0 0 -0 -0 0 -0 -0 0 -0 -0 0 0 0 0 0 0 0 0 0 0 0 0 0 0
0 0 0 0 0 0 0 0 0 0 0 0 0 0 0 0 0 0 0 0 0 0 0 0 0 0 0 0 0 0 0 -0 -0 0 -0 -0 -0 0 -0 -0 -0 0 0 0 0 0 0 0 0 0 0 0 0 0
0 0 0 0 0 0 0 0 0 0 0 0 0 0 0 0 0 0 0 0 0 0 0 0 0 0 0 0 0 0 -0 0 0 0 0 -0 -0 -0 0 0 -0 0 0 0 0 0 0 0 0 0 0 0 0 0
0 0 0 0 0 0 0 0 0 0 0 0 0 0 0 0 0 0 0 0 0 0 0 0 0 0 0 0 0 0 0 0 0 0 0 -0 -0 0 -0 0 -0 -0 0 0 0 0 0 0 0 0 0 0 0 0
0 0 0 0 0 0 0 0 0 0 0 0 0 0 0 0 0 0 0 0 0 0 0 0 0 0 0 0 0 0 0 0 -0 -0 -0 -0 -0 0 0 -0 0 0 0 -0 0 0 0 0 0 0 0 0 0 0
0 0 0 0 0 0 0 0 0 0 0 0 0 0 0 0 0 0 0 0 0 0 0 0 0 -0 0 0 0 -0 -0 -0 -0 -0 -0 -0 -0 -0 -0 -0 0 0 0 0 -0 -0 0 0 0 0 0 0 0 0
0 0 -0 -0 0 0 0 0 0 0 0 0 0 0 0 0 0 0 0 0 0 0 0 0 0 0 0 0 0 -0 -0 -0 -0 -0 -0 0 -0 0 -0 -0 -0 0 0 0 0 0 0 0 0 0 0 0 0 0
0 0 -0 -0 0 0 0 0 0 0 0 0 0 0 0 0 0 0 -0 -0 -0 0 0 0 -0 -0 0 0 0 -0 -0 -0 -0 -0 0 0 -0 -0 0 0 0 0 0 0 0 0 0 0 0 0 0 0 0 0
-0 -0 -0 0 0 0 0 0 0 0 0 0 0 0 0 0 0 -0 -0 -0 0 0 0 0 0 0 0 0 -0 -0 -0 -0 0 0 0 0 0 0 0 0 0 0 0 0 0 0 0 0 0 0 0 0 0 0
0 0 0 0 0 0 0 0 0 0 0 0 0 0 0 0 0 -0 0 0 0 0 0 0 0 0 0 -0 0 0 0 0 0 0 0 0 0 0 0 0 0 0 0 0 0 0 0 0 0 0 0 0 0 0
0 0 0 0 0 0 -0 0 0 0 0 0 0 0 0 0 0 0 0 0 0 0 0 0 0 0 0 0 0 0 0 0 0 0 0 0 0 0 0 0 0 0 0 0 0 0 0 0 0 0 0 0 0 0
0 0 0 0 0 0 -0 0 0 0 0 0 0 0 0 0 0 0 0 0 0 0 0 0 0 0 0 0 -0 0 0 0 0 0 0 0 0 -0 -0 -0 -0 0 -0 -0 0 0 0 0 0 0 0 0 0 0
0 0 0 0 0 0 0 0 0 0 0 0 0 0 0 0 0 0 0 0 0 0 0 0 0 0 0 0 0 0 0 0 0 0 0 0 0 0 -0 -0 -0 -0 0 0 0 0 0 0 0 0 0 0 0 0
0 0 0 0 0 0 0 0 0 0 0 0 0 0 0 0 0 0 0 0 0 0 0 0 0 0 0 0 0 0 0 -0 0 0 0 0 0 0 0 0 0 0 0 0 0 0 0 0 0 0 0 0 0 0
0 0 0 0 0 0 0 0 0 0 0 0 0 0 0 0 0 -0 0 0 0 0 0 0 0 0 0 0 0 0 0 0 0 0 0 0 0 0 0 0 0 0 0 0 0 0 0 0 0 0 0 0 0 0
0 0 0 0 0 0 0 0 0 0 0 0 0 0 0 0 -0 -0 0 -0 0 0 0 0 0 0 0 0 0 0 0 0 0 0 0 0 0 0 0 0 0 0 0 0 0 0 0 0 0 0 0 0 0 0
0 0 0 0 0 0 0 0 0 0 0 0 0 0 0 0 0 0 0 0 0 0 0 0 0 0 0 0 0 0 0 0 0 0 0 0 0 0 0 0 0 0 0 0 0 0 0 0 0 0 0 0 0 0
0 0 0 0 0 0 0 0 0 0 0 0 0 0 0 0 0 0 0 0 0 0 0 0 0 0 0 0 0 0 0 0 0 0 0 0 0 0 0 0 0 0 0 0 0 0 0 0 0 0 0 0 0 0
0 0 0 0 0 0 0 0 0 0 0 0 0 0 0 0 0 0 0 0 0 0 0 0 0 0 0 0 0 0 0 0 0 0 0 0 0 0 0 0 0 0 0 0 0 0 0 0 0 0 0 0 -0 -0
0 0 0 0 0 0 0 0 0 0 0 0 0 0 0 0 0 0 0 0 0 0 0 0 0 0 0 0 0 0 0 0 0 0 0 0 0 0 0 0 0 0 0 0 0 0 0 0 0 0 0 0 0 0
0 0 0 0 0 0 0 0 0 0 0 0 0 0 0 0 0 0 0 0 0 0 0 0 0 0 0 0 0 0 0 0 0 0 0 0 0 0 0 0 0 0 0 0 0 -0 -0 0 0 0 0 0 0 0
0 0 0 0 0 0 0 0 0 0 0 0 0 0 0 0 0 0 0 0 0 0 0 0 0 0 0 0 0 0 0 0 0 0 0 0 0 0 0 0 0 -0 -0 -0 -0 -0 0 0 0 0 0 0 0 0
Wind_Speed_500mb
24 15 13 12 6 7 10 9 6 5 5 5 2 5 9 11 9 4 5 11 5 6 24 22 13 10 14 12 6 13 15 7 4 2 4 6 5 6 8 12 10 15 6 5 4 5 13 18 2 5 8 3 13 12
22 18 17 17 16 15 13 10 7 5 2 2 4 6 9 10 10 8 8 10 14 13 21 33 34 40 40 42 36 14 13 18 6 5 5 5 10 9 16 10 4 7 5 5 13 10 14 28 28 23 15 2 5 8
24 24 26 25 23 21 17 16 14 12 9 8 7 7 8 9 10 9 6 11 18 13 30 6 12 18 14 17 26 32 29 27 25 34 15 6 7 4 5 9 13 9 8 7 6 10 23 36 40 38 23 13 7 12
36 33 29 24 19 18 16 12 9 7 5 5 3 4 7 10 11 12 13 11 11 11 6 9 10 28 38 26 37 44 43 44 45 40 27 6 4 14 8 12 15 13 15 7 13 36 52 49 45 40 21 12 6 7
30 27 24 20 16 15 15 12 8 7 7 6 5 6 8 10 12 14 13 8 8 10 8 20 36 7 15 28 29 29 32 39 34 17 8 7 13 14 23 9 15 21 28 18 16 23 21 34 19 9 13 2 2 3
30 27 24 22 21 18 15 14 13 11 8 6 6 9 12 14 17 17 3 5 5 12 12 7 14 37 5 7 21 28 29 33 35 22 12 20 52 16 6 8 29 53 61 57 42 42 46 16 8 4 3 6 5 5
30 28 26 22 19 15 13 13 11 9 5 5 6 9 13 17 19 10 5 13 27 30 8 11 14 11 25 23 28 31 31 34 23 9 15 25 27 28 5 19 30 43 56 54 55 40 32 25 19 12 9 7 6 7
29 27 25 21 16 10 11 13 14 7 1 5 10 15 17 21 21 3 3 8 10 8 6 5 10 13 16 16 12 20 20 13 12 12 9 12 10 18 10 38 59 65 58 54 44 19 20 21 5 13 9 9 7 9
28 26 24 19 14 11 11 14 13 7 3 9 13 17 20 8 4 2 12 29 27 13 5 7 4 7 14 25 21 13 7 3 8 11 12 11 4 9 17 27 38 50 45 42 34 33 22 23 20 17 10 6 9 14
29 25 25 23 16 14 17 16 13 12 9 10 12 4 4 4 15 24 6 4 4 7 9 7 8 5 13 17 8 11 6 6 5 10 8 7 6 33 47 55 64 49 38 27 33 24 27 29 22 17 12 6 10 14
32 31 29 27 20 17 14 15 20 19 14 6 2 5 14 24 21 1 2 2 3 5 10 12 17 13 16 5 8 9 5 4 4 7 5 2 4 20 43 44 40 36 40 25 22 27 31 32 26 22 19 16 10 10
29 29 31 29 24 19 16 13 23 21 10 10 3 13 18 4 3 3 4 6 3 7 7 6 23 27 19 12 4 8 5 4 10 7 4 5 6 37 44 45 32 8 21 13 18 17 13 15 28 24 24 10 6 10
25 24 22 24 25 26 23 17 18 15 19 8 5 3 2 1 8 9 6 8 4 7 5 14 17 14 8 6 8 4 4 9 23 2 5 1 22 41 40 40 30 12 4 12 7 10 13 34 32 33 18 11 11 11
21 18 17 16 17 20 23 21 23 26 13 7 7 3 9 6 8 10 8 7 7 9 21 26 14 6 8 6 5 2 9 5 6 4 4 6 35 39 34 23 27 21 14 7 27 23 16 14 13 3 6 7 10 8
20 17 15 14 17 20 18 23 27 22 11 7 8 7 9 19 20 20 27 27 33 30 27 16 14 8 6 2 4 5 10 6 3 7 5 26 30 33 35 27 22 22 14 4 16 22 18 13 10 9 11 10 10 12
22 19 18 18 18 19 23 28 24 20 7 8 10 8 16 14 30 31 29 29 27 31 14 4 3 6 8 6 2 8 3 4 3 7 17 20 24 30 28 27 24 18 13 14 13 13 15 18 22 23 23 20 17 11
20 15 16 22 22 22 21 22 17 11 11 9 13 25 32 31 33 42 35 32 16 9 4 4 5 13 6 1 5 6 3 5 28 13 13 14 21 24 24 24 25 25 20 20 25 26 29 32 31 29 26 20 15 14
25 22 16 23 29 30 28 17 8 7 11 21 15 26 33 38 40 46 47 37 26 17 12 9 8 3 7 6 5 5 12 8 11 11 12 8 12 17 19 23 25 26 26 24 25 27 28 26 24 22 20 17 14 15
27 18 18 19 24 25 14 15 13 8 21 19 30 39 43 45 47 47 47 39 30 27 10 8 8 6 6 15 16 22 15 12 8 9 10 5 9 12 12 14 15 19 20 21 22 22 20 17 17 14 9 6 7 10
28 19 17 15 19 14 10 8 12 9 10 12 24 35 33 37 42 41 40 34 29 17 16 10 13 30 29 29 24 19 22 16 12 8 6 2 2 5 10 13 15 14 13 14 13 10 9 8 7 3 2 3 4 5
28 25 16 20 26 24 11 13 15 12 11 12 14 16 14 22 35 42 46 38 30 16 15 32 47 52 46 45 39 33 28 14 14 3 4 1 3 7 6 7 6 8 9 7 5 6 8 5 3 6 6 3 4 7
30 26 25 20 12 10 12 20 12 8 10 12 10 13 13 11 26 29 31 23 19 41 46 50 51 48 41 37 40 36 27 21 19 18 15 11 6 5 5 5 9 8 8 6 5 3 3 5 7 7 6 4 8 11
29 29 17 11 16 12 8 13 12 11 9 7 7 4 8 8 9 9 8 13 18 37 39 39 36 35 32 24 17 22 21 20 18 15 12 11 12 13 14 11 10 9 7 3 3 6 4 5 5 3 3 2 3 5
29 17 11 12 20 7 10 11 11 8 10 5 4 6 7 11 8 7 7 15 38 37 34 27 28 27 22 23 27 25 20 15 15 16 15 15 17 12 7 8 10 9 7 7 8 6 2 1 2 2 2 0 2 4
14 14 11 11 15 14 8 7 9 9 6 7 4 6 8 6 1 6 7 20 28 30 25 22 20 19 20 17 21 23 19 17 17 16 15 15 12 13 11 9 6 5 4 5 4 4 5 3 2 1 1 1 3 3
8 19 24 26 14 11 13 6 10 9 8 5 9 7 4 2 3 10 6 7 6 10 14 14 17 19 23 24 22 22 21 18 18 20 19 19 16 16 14 14 13 10 6 4 5 6 7 8 7 6 7 7 9 11
9 14 16 19 11 10 8 11 15 8 8 10 6 6 4 4 9 8 9 12 10 8 6 6 11 14 13 15 20 19 13 9 8 8 10 11 11 13 15 15 16 15 14 15 13 12 12 13 14 13 12 13 15 18
18 21 14 22 17 18 7 6 8 11 8 13 10 8 10 12 7 5 5 8 5 6 5 6 8 10 9 10 12 12 9 7 5 6 9 11 13 15 16 19 20 20 20 19 18 18 18 18 19 20 21 22 24 24
12 16 26 13 11 12 18 18 15 18 18 24 13 8 11 15 22 19 16 14 14 15 15 15 16 17 17 16 13 10 8 6 7 9 10 12 13 15 18 19 16 16 18 18 17 16 16 17 20 22 24 27 28 24
14 28 19 20 12 12 21 29 21 24 26 37 30 16 19 28 34 32 31 28 26 23 19 19 19 24 26 26 23 21 19 16 15 16 17 19 20 19 19 21 23 24 23 22 20 19 20 21 21 18 16 15 20 22
16 34 13 19 13 23 37 29 29 25 27 31 35 38 44 41 42 41 40 36 33 31 33 30 27 27 27 28 28 26 26 25 24 23 23 23 22 23 26 28 30 28 25 24 22 17 14 14 15 17 19 21 22 24
25 22 16 8 9 17 20 24 31 25 25 34 38 39 36 24 22 36 44 41 39 41 38 38 39 36 32 31 32 32 31 28 28 28 27 25 22 22 21 23 23 22 22 19 18 21 22 21 22 21 21 23 23 24
17 18 16 6 7 9 15 15 11 8 12 11 16 31 38 24 15 15 20 24 27 30 31 32 33 34 34 34 33 31 29 27 27 26 23 22 22 22 21 20 21 22 24 26 24 24 24 23 23 23 24 22 23 23
Wind_Direction_500mb
183 193 217 229 215 151 137 133 130 135 129 118 79 331 325 329 335 334 344 9 325 250 293 292 276 307 301 287 154 308 353 0 70 240 180 281 287 343 312 338 258 187 198 215 152 220 268 257 181 206 219 22 18 330
185 205 199 170 149 147 155 160 168 171 170 83 68 54 43 42 50 82 83 338 329 293 276 292 274 262 269 266 273 263 250 288 282 64 352 317 306 297 279 277 96 300 243 271 185 216 267 294 307 303 273 171 358 15
169 159 146 142 138 131 128 123 120 115 102 82 58 41 29 22 15 8 338 322 331 312 315 354 304 299 276 281 284 251 256 259 252 263 269 230 235 154 275 257 314 285 309 250 309 259 270 293 303 302 272 254 268 281
148 148 155 157 150 143 143 134 124 127 120 102 62 6 352 358 3 345 337 309 307 307 287 299 335 291 297 277 256 261 275 276 270 258 241 188 205 247 226 251 264 262 309 247 256 278 285 294 298 287 252 200 264 284
154 154 154 153 159 150 152 155 147 121 102 88 60 24 10 9 358 344 327 318 259 274 272 285 305 240 302 289 280 280 279 266 270 243 194 225 233 245 254 251 254 246 254 247 256 260 278 285 322 230 189 277 324 140
154 154 151 149 141 138 137 141 140 124 106 68 51 21 6 355 360 357 55 48 27 15 331 308 298 301 338 297 284 306 306 283 276 248 239 238 243 231 260 251 243 250 250 251 258 263 263 279 313 354 88 137 187 187
164 161 155 154 147 148 148 150 155 154 129 42 10 344 341 337 334 343 293 288 307 320 288 297 295 291 309 327 314 301 301 279 269 246 233 238 245 230 253 264 261 270 273 280 300 248 238 260 284 246 220 243 256 248
175 171 174 169 164 165 171 177 185 180 170 327 323 322 318 312 310 302 304 306 320 309 245 273 279 300 316 314 319 307 281 266 244 232 250 237 245 206 243 241 253 259 263 270 267 252 247 236 322 189 202 241 269 280
186 184 186 187 185 176 181 196 191 224 270 307 318 318 309 320 336 330 305 298 292 249 250 225 193 275 322 327 311 291 249 293 265 225 225 208 217 229 250 274 259 261 257 265 271 258 263 274 239 203 233 240 274 300
194 195 196 195 197 193 223 226 217 238 262 300 322 292 282 292 314 318 304 336 234 200 216 255 283 280 290 303 299 307 266 263 261 243 213 208 258 280 284 288 274 266 270 269 259 234 246 247 229 205 224 235 273 286
202 206 206 201 214 228 227 227 212 220 228 268 203 241 271 289 309 304 303 272 206 273 212 235 239 247 302 273 238 247 255 268 346 267 303 261 281 317 346 340 354 254 250 269 273 264 254 239 215 209 211 208 281 243
201 205 210 211 224 223 229 237 221 211 206 169 212 287 297 35 68 31 272 298 132 242 206 248 294 300 308 282 296 278 218 12 249 300 47 301 319 334 352 354 351 330 229 258 244 253 224 221 214 221 193 196 228 230
197 196 198 218 222 226 227 211 197 175 177 194 215 183 326 218 30 121 248 294 274 229 359 337 328 320 297 260 250 275 322 243 318 314 232 332 319 349 349 356 5 352 334 224 237 135 130 153 156 149 151 222 236 228
188 179 188 202 206 212 216 215 196 179 146 193 162 319 157 291 240 199 197 207 298 341 331 324 310 279 271 304 235 186 247 292 283 297 7 304 349 350 352 351 2 352 327 254 192 175 158 151 145 353 317 220 197 204
179 180 178 179 182 179 184 183 185 155 170 170 169 215 223 233 249 261 281 287 300 310 301 313 304 250 271 345 215 318 335 268 324 347 277 337 354 2 3 3 4 11 16 110 177 204 211 237 256 215 170 166 165 199
180 182 186 185 181 176 169 167 164 175 188 200 219 242 248 275 274 282 290 300 305 294 268 254 248 9 267 194 60 240 274 320 347 263 322 346 10 14 14 19 18 16 34 71 103 140 159 156 151 139 127 124 126 130
178 179 173 185 179 177 176 175 174 196 203 209 240 235 248 269 271 280 290 292 305 269 170 176 252 234 275 350 273 213 215 238 280 311 327 15 7 13 31 36 44 46 69 90 107 114 119 125 125 122 121 121 111 92
186 180 171 171 172 169 179 195 196 210 236 235 242 250 244 253 263 273 275 282 280 254 198 207 252 242 238 211 256 291 335 317 312 336 350 12 52 43 38 48 61 68 80 94 106 113 118 119 121 119 114 105 92 73
165 165 167 166 178 178 178 194 202 235 240 242 252 259 262 271 271 271 277 282 275 256 217 221 226 223 233 249 281 305 321 308 323 326 329 352 51 42 34 42 65 76 85 93 109 114 115 117 115 113 105 82 42 30
174 177 176 180 182 175 191 193 201 228 251 247 251 262 259 262 280 281 279 274 259 229 206 213 211 232 238 262 299 295 310 292 291 296 268 30 81 15 17 31 46 55 68 80 89 102 107 113 122 124 262 296 323 332
181 180 180 200 207 210 218 205 205 227 238 245 266 264 264 270 273 274 269 271 245 224 239 240 253 258 259 262 266 278 290 261 240 311 321 219 243 293 300 344 18 39 47 55 63 75 78 79 24 338 347 309 260 237
180 179 182 197 219 226 238 205 204 218 227 252 266 236 256 257 276 278 275 232 232 245 242 253 262 269 259 266 258 262 255 223 207 248 272 272 254 269 276 279 320 333 345 353 8 31 9 329 321 315 315 291 255 251
178 185 187 200 201 211 245 211 200 210 217 236 203 231 248 248 251 251 258 235 246 264 268 268 265 260 249 248 238 247 228 226 237 245 247 260 261 270 280 283 301 316 318 301 319 336 342 335 335 338 280 288 291 292
176 169 183 201 203 224 184 202 213 235 220 223 204 257 252 233 232 231 245 258 269 269 262 258 246 240 241 228 225 227 219 233 248 246 247 261 263 256 268 299 296 294 300 299 290 283 265 308 355 31 63 51 255 267
173 190 189 204 199 196 181 209 206 201 227 211 213 279 261 231 264 245 241 266 269 275 249 249 239 228 221 222 226 221 225 240 244 239 230 230 253 250 253 244 246 266 292 302 285 233 211 219 241 242 261 279 221 226
175 195 189 196 191 185 192 202 195 208 186 217 232 229 208 186 277 252 251 288 300 253 256 247 235 221 220 226 222 223 232 233 233 230 226 234 248 235 224 227 252 260 271 285 273 256 243 241 239 238 244 249 249 250
198 210 198 197 194 182 214 216 186 185 197 202 227 173 115 191 247 253 268 289 275 282 266 244 225 217 217 214 211 214 214 213 208 213 219 233 247 244 242 242 249 263 269 275 276 266 255 252 258 263 264 269 279 279
212 187 173 189 196 199 180 213 187 209 217 208 180 181 194 203 240 242 291 323 289 278 256 223 197 197 194 175 168 170 172 180 198 229 250 256 256 255 257 261 264 267 269 272 270 263 255 253 256 262 267 272 280 280
201 188 184 172 177 193 211 205 216 218 211 193 183 202 220 219 245 262 284 291 276 262 256 244 225 216 208 201 203 215 220 239 268 272 273 274 267 260 261 263 270 265 269 270 268 263 259 256 257 261 264 268 273 274
199 184 186 183 177 213 216 207 226 228 231 228 226 234 242 250 266 277 278 272 274 275 268 259 242 229 227 228 230 233 238 255 269 274 277 278 277 276 264 259 265 275 275 270 266 264 261 261 264 265 274 279 284 283
177 186 195 194 222 236 244 238 233 247 256 250 245 250 258 267 272 272 268 266 270 265 251 248 249 246 242 242 243 249 256 267 272 275 280 280 274 268 264 261 262 263 262 261 264 266 268 268 271 273 272 273 279 284
176 185 182 193 235 241 231 228 235 237 246 249 255 259 259 255 258 272 266 267 262 254 253 249 247 245 248 247 248 254 264 269 275 277 273 271 265 262 261 256 252 251 251 260 265 268 266 264 267 268 269 271 274 277
194 202 210 230 215 223 207 198 213 254 229 231 247 249 245 236 244 254 251 245 246 247 247 248 248 248 247 248 251 255 260 266 268 267 261 256 257 260 264 265 264 262 262 264 262 262 263 263 262 262 263 263 266 272
Wind_Speed_850mb
24 15 13 12 6 7 10 9 6 5 5 5 2 5 9 11 9 4 5 11 5 6 24 22 13 10 14 12 6 13 15 7 4 2 4 6 5 6 8 12 10 15 6 5 4 5 13 18 2 5 8 3 13 12
22 18 17 17 16 15 13 10 7 5 2 2 4 6 9 10 10 8 8 10 14 13 21 33 34 40 40 42 36 14 13 18 6 5 5 5 10 9 16 10 4 7 5 5 13 10 14 28 28 23 15 2 5 8
24 24 26 25 23 21 17 16 14 12 9 8 7 7 8 9 10 9 6 11 18 13 30 6 12 18 14 17 26 32 29 27 25 34 15 6 7 4 5 9 13 9 8 7 6 10 23 36 40 38 23 13 7 12
36 33 29 24 19 18 16 12 9 7 5 5 3 4 7 10 11 12 13 11 11 11 6 9 10 28 38 26 37 44 43 44 45 40 27 6 4 14 8 12 15 13 15 7 13 36 52 49 45 40 21 12 6 7
30 27 24 20 16 15 15 12 8 7 7 6 5 6 8 10 12 14 13 8 8 10 8 20 36 7 15 28 29 29 32 39 34 17 8 7 13 14 23 9 15 21 28 18 16 23 21 34 19 9 13 2 2 3
30 27 24 22 21 18 15 14 13 11 8 6 6 9 12 14 17 17 3 5 5 12 12 7 14 37 5 7 21 28 29 33 35 22 12 20 52 16 6 8 29 53 61 57 42 42 46 16 8 4 3 6 5 5
30 28 26 22 19 15 13 13 11 9 5 5 6 9 13 17 19 10 5 13 27 30 8 11 14 11 25 23 28 31 31 34 23 9 15 25 27 28 5 19 30 43 56 54 55 40 32 25 19 12 9 7 6 7
29 27 25 21 16 10 11 13 14 7 1 5 10 15 17 21 21 3 3 8 10 8 6 5 10 13 16 16 12 20 20 13 12 12 9 12 10 18 10 38 59 65 58 54 44 19 20 21 5 13 9 9 7 9
28 26 24 19 14 11 11 14 13 7 3 9 13 17 20 8 4 2 12 29 27 13 5 7 4 7 14 25 21 13 7 3 8 11 12 11 4 9 17 27 38 50 45 42 34 33 22 23 20 17 10 6 9 14
29 25 25 23 16 14 17 16 13 12 9 10 12 4 4 4 15 24 6 4 4 7 9 7 8 5 13 17 8 11 6 6 5 10 8 7 6 33 47 55 64 49 38 27 33 24 27 29 22 17 12 6 10 14
32 31 29 27 20 17 14 15 20 19 14 6 2 5 14 24 21 1 2 2 3 5 10 12 17 13 16 5 8 9 5 4 4 7 5 2 4 20 43 44 40 36 40 25 22 27 31 32 26 22 19 16 10 10
29 29 31 29 24 19 16 13 23 21 10 10 3 13 18 4 3 3 4 6 3 7 7 6 23 27 19 12 4 8 5 4 10 7 4 5 6 37 44 45 32 8 21 13 18 17 13 15 28 24 24 10 6 10
25 24 22 24 25 26 23 17 18 15 19 8 5 3 2 1 8 9 6 8 4 7 5 14 17 14 8 6 8 4 4 9 23 2 5 1 22 41 40 40 30 12 4 12 7 10 13 34 32 33 18 11 11 11
21 18 17 16 17 20 23 21 23 26 13 7 7 3 9 6 8 10 8 7 7 9 21 26 14 6 8 6 5 2 9 5 6 4 4 6 35 39 34 23 27 21 14 7 27 23 16 14 13 3 6 7 10 8
20 17 15 14 17 20 18 23 27 22 11 7 8 7 9 19 20 20 27 27 33 30 27 16 14 8 6 2 4 5 10 6 3 7 5 26 30 33 35 27 22 22 14 4 16 22 18 13 10 9 11 10 10 12
22 19 18 18 18 19 23 28 24 20 7 8 10 8 16 14 30 31 29 29 27 31 14 4 3 6 8 6 2 8 3 4 3 7 17 20 24 30 28 27 24 18 13 14 13 13 15 18 22 23 23 20 17 11
20 15 16 22 22 22 21 22 17 11 11 9 13 25 32 31 33 42 35 32 16 9 4 4 5 13 6 1 5 6 3 5 28 13 13 14 21 24 24 24 25 25 20 20 25 26 29 32 31 29 26 20 15 14
25 22 16 23 29 30 28 17 8 7 11 21 15 26 33 38 40 46 47 37 26 17 12 9 8 3 7 6 5 5 12 8 11 11 12 8 12 17 19 23 25 26 26 24 25 27 28 26 24 22 20 17 14 15
27 18 18 19 24 25 14 15 13 8 21 19 30 39 43 45 47 47 47 39 30 27 10 8 8 6 6 15 16 22 15 12 8 9 10 5 9 12 12 14 15 19 20 21 22 22 20 17 17 14 9 6 7 10
28 19 17 15 19 14 10 8 12 9 10 12 24 35 33 37 42 41 40 34 29 17 16 10 13 30 29 29 24 19 22 16 12 8 6 2 2 5 10 13 15 14 13 14 13 10 9 8 7 3 2 3 4 5
28 25 16 20 26 24 11 13 15 12 11 12 14 16 14 22 35 42 46 38 30 16 15 32 47 52 46 45 39 33 28 14 14 3 4 1 3 7 6 7 6 8 9 7 5 6 8 5 3 6 6 3 4 7
30 26 25 20 12 10 12 20 12 8 10 12 10 13 13 11 26 29 31 23 19 41 46 50 51 48 41 37 40 36 27 21 19 18 15 11 6 5 5 5 9 8 8 6 5 3 3 5 7 7 6 4 8 11
29 29 17 11 16 12 8 13 12 11 9 7 7 4 8 8 9 9 8 13 18 37 39 39 36 35 32 24 17 22 21 20 18 15 12 11 12 13 14 11 10 9 7 3 3 6 4 5 5 3 3 2 3 5
29 17 11 12 20 7 10 11 11 8 10 5 4 6 7 11 8 7 7 15 38 37 34 27 28 27 22 23 27 25 20 15 15 16 15 15 17 12 7 8 10 9 7 7 8 6 2 1 2 2 2 0 2 4
14 14 11 11 15 14 8 7 9 9 6 7 4 6 8 6 1 6 7 20 28 30 25 22 20 19 20 17 21 23 19 17 17 16 15 15 12 13 11 9 6 5 4 5 4 4 5 3 2 1 1 1 3 3
8 19 24 26 14 11 13 6 10 9 8 5 9 7 4 2 3 10 6 7 6 10 14 14 17 19 23 24 22 22 21 18 18 20 19 19 16 16 14 14 13 10 6 4 5 6 7 8 7 6 7 7 9 11
9 14 16 19 11 10 8 11 15 8 8 10 6 6 4 4 9 8 9 12 10 8 6 6 11 14 13 15 20 19 13 9 8 8 10 11 11 13 15 15 16 15 14 15 13 12 12 13 14 13 12 13 15 18
18 21 14 22 17 18 7 6 8 11 8 13 10 8 10 12 7 5 5 8 5 6 5 6 8 10 9 10 12 12 9 7 5 6 9 11 13 15 16 19 20 20 20 19 18 18 18 18 19 20 21 22 24 24
12 16 26 13 11 12 18 18 15 18 18 24 13 8 11 15 22 19 16 14 14 15 15 15 16 17 17 16 13 10 8 6 7 9 10 12 13 15 18 19 16 16 18 18 17 16 16 17 20 22 24 27 28 24
14 28 19 20 12 12 21 29 21 24 26 37 30 16 19 28 34 32 31 28 26 23 19 19 19 24 26 26 23 21 19 16 15 16 17 19 20 19 19 21 23 24 23 22 20 19 20 21 21 18 16 15 20 22
16 34 13 19 13 23 37 29 29 25 27 31 35 38 44 41 42 41 40 36 33 31 33 30 27 27 27 28 28 26 26 25 24 23 23 23 22 23 26 28 30 28 25 24 22 17 14 14 15 17 19 21 22 24
25 22 16 8 9 17 20 24 31 25 25 34 38 39 36 24 22 36 44 41 39 41 38 38 39 36 32 31 32 32 31 28 28 28 27 25 22 22 21 23 23 22 22 19 18 21 22 21 22 21 21 23 23 24
17 18 16 6 7 9 15 15 11 8 12 11 16 31 38 24 15 15 20 24 27 30 31 32 33 34 34 34 33 31 29 27 27 26 23 22 22 22 21 20 21 22 24 26 24 24 24 23 23 23 24 22 23 23
Wind_Direction_850mb
183 193 217 229 215 151 137 133 130 135 129 118 79 331 325 329 335 334 344 9 325 250 293 292 276 307 301 287 154 308 353 0 70 240 180 281 287 343 312 338 258 187 198 215 152 220 268 257 181 206 219 22 18 330
185 205 199 170 149 147 155 160 168 171 170 83 68 54 43 42 50 82 83 338 329 293 276 292 274 262 269 266 273 263 250 288 282 64 352 317 306 297 279 277 96 300 243 271 185 216 267 294 307 303 273 171 358 15
169 159 146 142 138 131 128 123 120 115 102 82 58 41 29 22 15 8 338 322 331 312 315 354 304 299 276 281 284 251 256 259 252 263 269 230 235 154 275 257 314 285 309 250 309 259 270 293 303 302 272 254 268 281
148 148 155 157 150 143 143 134 124 127 120 102 62 6 352 358 3 345 337 309 307 307 287 299 335 291 297 277 256 261 275 276 270 258 241 188 205 247 226 251 264 262 309 247 256 278 285 294 298 287 252 200 264 284
154 154 154 153 159 150 152 155 147 121 102 88 60 24 10 9 358 344 327 318 259 274 272 285 305 240 302 289 280 280 279 266 270 243 194 225 233 245 254 251 254 246 254 247 256 260 278 285 322 230 189 277 324 140
154 154 151 149 141 138 137 141 140 124 106 68 51 21 6 355 360 357 55 48 27 15 331 308 298 301 338 297 284 306 306 283 276 248 239 238 243 231 260 251 243 250 250 251 258 263 263 279 313 354 88 137 187 187
164 161 155 154 147 148 148 150 155 154 129 42 10 344 341 337 334 343 293 288 307 320 288 297 295 291 309 327 314 301 301 279 269 246 233 238 245 230 253 264 261 270 273 280 300 248 238 260 284 246 220 243 256 248
175 171 174 169 164 165 171 177 185 180 170 327 323 322 318 312 310 302 304 306 320 309 245 273 279 300 316 314 319 307 281 266 244 232 250 237 245 206 243 241 253 259 263 270 267 252 247 236 322 189 202 241 269 280
186 184 186 187 185 176 181 196 191 224 270 307 318 318 309 320 336 330 305 298 292 249 250 225 193 275 322 327 311 291 249 293 265 225 225 208 217 229 250 274 259 261 257 265 271 258 263 274 239 203 233 240 274 300
194 195 196 195 197 193 223 226 217 238 262 300 322 292 282 292 314 318 304 336 234 200 216 255 283 280 290 303 299 307 266 263 261 243 213 208 258 280 284 288 274 266 270 269 259 234 246 247 229 205 224 235 273 286
202 206 206 201 214 228 227 227 212 220 228 268 203 241 271 289 309 304 303 272 206 273 212 235 239 247 302 273 238 247 255 268 346 267 303 261 281 317 346 340 354 254 250 269 273 264 254 239 215 209 211 208 281 243
201 205 210 211 224 223 229 237 221 211 206 169 212 287 297 35 68 31 272 298 132 242 206 248 294 300 308 282 296 278 218 12 249 300 47 301 319 334 352 354 351 330 229 258 244 253 224 221 214 221 193 196 228 230
197 196 198 218 222 226 227 211 197 175 177 194 215 183 326 218 30 121 248 294 274 229 359 337 328 320 297 260 250 275 322 243 318 314 232 332 319 349 349 356 5 352 334 224 237 135 130 153 156 149 151 222 236 228
188 179 188 202 206 212 216 215 196 179 146 193 162 319 157 291 240 199 197 207 298 341 331 324 310 279 271 304 235 186 247 292 283 297 7 304 349 350 352 351 2 352 327 254 192 175 158 151 145 353 317 220 197 204
179 180 178 179 182 179 184 183 185 155 170 170 169 215 223 233 249 261 281 287 300 310 301 313 304 250 271 345 215 318 335 268 324 347 277 337 354 2 3 3 4 11 16 110 177 204 211 237 256 215 170 166 165 199
180 182 186 185 181 176 169 167 164 175 188 200 219 242 248 275 274 282 290 300 305 294 268 254 248 9 267 194 60 240 274 320 347 263 322 346 10 14 14 19 18 16 34 71 103 140 159 156 151 139 127 124 126 130
178 179 173 185 179 177 176 175 174 196 203 209 240 235 248 269 271 280 290 292 305 269 170 176 252 234 275 350 273 213 215 238 280 311 327 15 7 13 31 36 44 46 69 90 107 114 119 125 125 122 121 121 111 92
186 180 171 171 172 169 179 195 196 210 236 235 242 250 244 253 263 273 275 282 280 254 198 207 252 242 238 211 256 291 335 317 312 336 350 12 52 43 38 48 61 68 80 94 106 113 118 119 121 119 114 105 92 73
165 165 167 166 178 178 178 194 202 235 240 242 252 259 262 271 271 271 277 282 275 256 217 221 226 223 233 249 281 305 321 308 323 326 329 352 51 42 34 42 65 76 85 93 109 114 115 117 115 113 105 82 42 30
174 177 176 180 182 175 191 193 201 228 251 247 251 262 259 262 280 281 279 274 259 229 206 213 211 232 238 262 299 295 310 292 291 296 268 30 81 15 17 31 46 55 68 80 89 102 107 113 122 124 262 296 323 332
181 180 180 200 207 210 218 205 205 227 238 245 266 264 264 270 273 274 269 271 245 224 239 240 253 258 259 262 266 278 290 261 240 311 321 219 243 293 300 344 18 39 47 55 63 75 78 79 24 338 347 309 260 237
180 179 182 197 219 226 238 205 204 218 227 252 266 236 256 257 276 278 275 232 232 245 242 253 262 269 259 266 258 262 255 223 207 248 272 272 254 269 276 279 320 333 345 353 8 31 9 329 321 315 315 291 255 251
178 185 187 200 201 211 245 211 200 210 217 236 203 231 248 248 251 251 258 235 246 264 268 268 265 260 249 248 238 247 228 226 237 245 247 260 261 270 280 283 301 316 318 301 319 336 342 335 335 338 280 288 291 292
176 169 183 201 203 224 184 202 213 235 220 223 204 257 252 233 232 231 245 258 269 269 262 258 246 240 241 228 225 227 219 233 248 246 247 261 263 256 268 299 296 294 300 299 290 283 265 308 355 31 63 51 255 267
173 190 189 204 199 196 181 209 206 201 227 211 213 279 261 231 264 245 241 266 269 275 249 249 239 228 221 222 226 221 225 240 244 239 230 230 253 250 253 244 246 266 292 302 285 233 211 219 241 242 261 279 221 226
175 195 189 196 191 185 192 202 195 208 186 217 232 229 208 186 277 252 251 288 300 253 256 247 235 221 220 226 222 223 232 233 233 230 226 234 248 235 224 227 252 260 271 285 273 256 243 241 239 238 244 249 249 250
198 210 198 197 194 182 214 216 186 185 197 202 227 173 115 191 247 253 268 289 275 282 266 244 225 217 217 214 211 214 214 213 208 213 219 233 247 244 242 242 249 263 269 275 276 266 255 252 258 263 264 269 279 279
212 187 173 189 196 199 180 213 187 209 217 208 180 181 194 203 240 242 291 323 289 278 256 223 197 197 194 175 168 170 172 180 198 229 250 256 256 255 257 261 264 267 269 272 270 263 255 253 256 262 267 272 280 280
201 188 184 172 177 193 211 205 216 218 211 193 183 202 220 219 245 262 284 291 276 262 256 244 225 216 208 201 203 215 220 239 268 272 273 274 267 260 261 263 270 265 269 270 268 263 259 256 257 261 264 268 273 274
199 184 186 183 177 213 216 207 226 228 231 228 226 234 242 250 266 277 278 272 274 275 268 259 242 229 227 228 230 233 238 255 269 274 277 278 277 276 264 259 265 275 275 270 266 264 261 261 264 265 274 279 284 283
177 186 195 194 222 236 244 238 233 247 256 250 245 250 258 267 272 272 268 266 270 265 251 248 249 246 242 242 243 249 256 267 272 275 280 280 274 268 264 261 262 263 262 261 264 266 268 268 271 273 272 273 279 284
176 185 182 193 235 241 231 228 235 237 246 249 255 259 259 255 258 272 266 267 262 254 253 249 247 245 248 247 248 254 264 269 275 277 273 271 265 262 261 256 252 251 251 260 265 268 266 264 267 268 269 271 274 277
194 202 210 230 215 223 207 198 213 254 229 231 247 249 245 236 244 254 251 245 246 247 247 248 248 248 247 248 251 255 260 266 268 267 261 256 257 260 264 265 264 262 262 264 262 262 263 263 262 262 263 263 266 272